IRIDIUM 129

Last updated on Fri Sep 11 2026 00:03:06 GMT+0000 (Coordinated Universal Time)

1 42958U 17061D 26253.34577058 .00000154 00000+0 47943-4 0 9990 2 42958 86.4029 349.6672 0002305 100.8138 259.3318 14.34217217467007
UTC large
Height (km)
Speed (km/s)
/
Latitude / Longitude
Inclination (degrees)
Orbital Period (minutes)
Azimuth
Elevation
Range (km)
Doppler Factor

Next 0 passes for location: London (51.5072 / 0.1276)

No passes found over London.
IRIDIUM 129